Total_Precipitation_Accumulation
1.21 1.31 1.35 1.35 1.29 1.40 1.42 1.39 1.43 1.47 1.40 1.45 1.54 1.61 1.59 1.65 1.76 1.86 1.74 1.81 1.92 2.09 2.03 2.01 2.07 2.17 2.13 2.03 2.11 2.18 2.32 2.59 2.56 2.10 1.99 2.00 1.88 1.69 1.60 1.52 1.48 1.57 1.57
1.16 1.28 1.37 1.50 1.46 1.42 1.40 1.43 1.46 1.55 1.60 1.57 1.61 1.64 1.53 1.57 1.77 1.85 1.83 1.87 1.93 1.98 2.15 2.36 2.33 2.36 2.28 2.14 2.23 2.18 2.25 2.53 2.46 2.23 2.24 2.24 2.19 1.99 1.84 1.68 1.52 1.50 1.57
1.22 1.29 1.44 1.52 1.43 1.38 1.49 1.57 1.59 1.72 1.84 1.88 1.86 1.75 1.67 1.65 1.72 1.82 1.91 1.94 1.98 2.05 2.19 2.29 2.34 2.48 2.36 2.26 2.19 2.15 2.23 2.40 2.48 2.32 2.28 2.43 2.34 2.09 1.95 1.73 1.55 1.59 1.43
1.31 1.45 1.52 1.56 1.51 1.49 1.58 1.68 1.69 1.76 1.91 2.04 2.00 1.94 1.90 1.81 1.67 1.65 1.70 1.79 1.96 2.11 2.17 2.10 2.18 2.41 2.47 2.45 2.27 2.21 2.30 2.44 2.48 2.42 2.37 2.47 2.49 2.42 2.24 1.98 1.85 1.72 1.55
1.44 1.59 1.64 1.75 1.78 1.81 1.90 1.91 1.84 1.84 1.87 2.03 2.10 2.10 2.04 1.88 1.65 1.68 1.82 1.82 2.00 2.03 1.98 1.88 1.86 2.06 2.30 2.39 2.18 2.17 2.28 2.31 2.32 2.36 2.37 2.42 2.47 2.59 2.46 2.17 1.94 1.80 1.58
1.64 1.96 1.99 2.02 2.02 2.09 2.24 2.32 2.22 2.19 2.28 2.32 2.26 2.19 2.10 1.75 1.82 1.84 1.82 1.88 2.01 2.04 1.99 1.90 1.76 1.72 1.75 1.89 2.03 2.16 2.27 2.24 2.24 2.39 2.56 2.61 2.60 2.60 2.59 2.37 2.10 1.87 1.72
1.80 2.06 2.21 2.25 2.27 2.32 2.42 2.44 2.37 2.47 2.64 2.67 2.55 2.37 2.22 2.12 2.01 1.78 1.73 1.65 1.73 1.78 1.83 1.81 1.53 1.37 1.48 1.42 1.61 1.77 1.89 1.97 2.00 2.15 2.32 2.43 2.55 2.69 2.73 2.50 2.30 2.11 1.86
2.06 2.19 2.30 2.30 2.30 2.34 2.38 2.30 2.32 2.46 2.53 2.56 2.50 2.38 2.27 2.19 2.04 1.70 1.61 1.42 1.47 1.52 1.56 1.56 1.50 1.42 1.40 1.46 1.47 1.46 1.45 1.53 1.64 1.67 1.79 2.03 2.28 2.49 2.65 2.56 2.45 2.17 1.88
2.10 2.12 2.10 2.17 2.24 2.28 2.30 2.34 2.38 2.37 2.25 2.15 2.12 2.13 2.11 2.15 2.08 1.72 1.53 1.37 1.48 1.51 1.52 1.55 1.57 1.49 1.59 1.47 1.42 1.47 1.48 1.51 1.55 1.59 1.61 1.78 2.03 2.21 2.31 2.38 2.35 2.20 1.97
2.09 2.10 2.06 2.14 2.21 2.25 2.30 2.36 2.31 2.22 2.16 2.10 2.01 2.03 2.02 2.01 2.01 1.63 1.47 1.39 1.50 1.52 1.55 1.56 1.55 1.43 1.44 1.31 1.26 1.39 1.41 1.44 1.48 1.49 1.51 1.54 1.62 1.93 2.23 2.08 2.08 2.11 1.93
1.90 2.00 2.13 2.27 2.31 2.30 2.32 2.29 2.22 2.12 2.13 2.15 2.07 2.00 1.98 1.94 1.95 1.65 1.45 1.31 1.48 1.64 1.63 1.56 1.55 1.46 1.19 1.13 1.09 1.12 1.16 1.21 1.31 1.32 1.27 1.28 1.38 1.54 1.78 1.87 1.84 1.79 1.75
1.77 1.88 1.92 2.03 2.13 2.11 2.16 2.08 2.08 2.05 2.02 1.98 1.90 1.81 1.78 1.79 1.69 1.55 1.33 1.20 1.27 1.43 1.55 1.56 1.56 1.42 1.13 1.01 0.92 0.90 0.90 0.87 0.96 1.09 1.14 1.16 1.22 1.34 1.49 1.64 1.73 1.76 1.64
1.64 1.76 1.85 1.91 2.05 2.10 2.11 2.01 1.93 1.89 1.82 1.74 1.66 1.61 1.62 1.63 1.56 1.33 1.14 1.05 1.08 1.18 1.34 1.49 1.40 1.22 1.04 0.89 0.84 0.80 0.76 0.73 0.85 1.01 1.09 1.09 1.10 1.19 1.43 1.72 1.88 1.96 1.88
1.65 1.67 1.76 1.83 1.91 2.09 2.11 1.96 1.83 1.71 1.64 1.61 1.56 1.57 1.61 1.62 1.54 1.34 1.14 0.98 0.99 1.05 1.13 1.22 1.23 1.21 1.14 1.05 0.94 0.84 0.76 0.81 0.91 1.01 1.13 1.25 1.36 1.44 1.53 1.63 1.80 1.87 1.89
1.38 1.34 1.34 1.46 1.62 1.80 1.85 1.80 1.63 1.53 1.60 1.62 1.58 1.55 1.48 1.42 1.45 1.39 1.20 1.12 1.13 1.17 1.14 1.18 1.21 1.29 1.33 1.33 1.29 1.19 1.10 1.07 1.03 1.03 1.18 1.32 1.34 1.35 1.38 1.49 1.65 1.69 1.59
1.35 1.25 1.22 1.23 1.32 1.52 1.72 1.80 1.66 1.44 1.48 1.43 1.36 1.31 1.28 1.24 1.22 1.21 1.13 1.07 1.10 1.11 1.04 1.16 1.32 1.42 1.51 1.52 1.51 1.38 1.23 1.11 1.04 1.06 1.14 1.23 1.28 1.30 1.33 1.45 1.58 1.58 1.45
1.35 1.29 1.24 1.21 1.24 1.35 1.58 1.81 1.86 1.63 1.42 1.31 1.16 1.04 1.00 0.98 1.01 1.04 1.07 1.02 1.00 0.96 0.89 1.04 1.21 1.29 1.37 1.38 1.38 1.30 1.24 1.19 1.17 1.21 1.27 1.33 1.39 1.39 1.39 1.41 1.50 1.54 1.43
1.27 1.24 1.13 1.10 1.16 1.28 1.50 1.78 1.96 1.90 1.71 1.44 1.15 0.97 0.91 0.86 0.87 0.94 0.98 0.92 0.87 0.81 0.76 0.88 1.01 1.12 1.23 1.36 1.43 1.40 1.37 1.33 1.27 1.24 1.31 1.34 1.38 1.41 1.39 1.34 1.39 1.47 1.45
1.20 1.20 1.16 1.14 1.17 1.20 1.41 1.71 1.91 1.97 1.86 1.67 1.31 1.01 0.89 0.82 0.82 0.91 0.90 0.84 0.86 0.82 0.79 0.81 0.87 1.01 1.19 1.35 1.46 1.52 1.52 1.45 1.32 1.28 1.29 1.32 1.32 1.38 1.35 1.30 1.35 1.46 1.47
1.06 1.08 0.99 0.98 1.03 1.05 1.14 1.35 1.62 1.79 1.75 1.65 1.40 0.99 0.73 0.67 0.73 0.89 0.95 1.00 1.00 0.92 0.88 0.88 0.93 1.02 1.18 1.35 1.43 1.45 1.48 1.43 1.39 1.34 1.29 1.33 1.36 1.36 1.33 1.28 1.30 1.39 1.36
0.98 0.97 0.90 0.81 0.87 0.93 1.01 1.21 1.49 1.67 1.62 1.53 1.35 1.02 0.81 0.77 0.86 0.93 1.04 1.07 1.07 1.01 0.97 0.92 0.92 0.99 1.13 1.26 1.34 1.38 1.42 1.40 1.33 1.32 1.29 1.31 1.37 1.38 1.43 1.43 1.38 1.41 1.43
0.81 0.84 0.80 0.79 0.85 0.89 0.92 1.11 1.38 1.54 1.48 1.39 1.30 1.11 0.98 0.97 1.03 1.09 1.10 1.06 1.01 0.94 0.92 0.96 0.98 1.03 1.11 1.17 1.24 1.35 1.42 1.41 1.36 1.32 1.33 1.35 1.40 1.41 1.45 1.46 1.42 1.41 1.42
0.69 0.69 0.67 0.68 0.73 0.80 0.91 1.10 1.26 1.32 1.30 1.28 1.16 1.02 0.99 1.01 1.02 1.05 1.07 1.04 0.99 0.94 0.93 0.98 1.03 1.06 1.11 1.13 1.15 1.24 1.30 1.30 1.30 1.31 1.37 1.42 1.44 1.43 1.45 1.46 1.42 1.44 1.40
0.71 0.76 0.77 0.78 0.80 0.90 1.01 1.13 1.18 1.16 1.11 1.09 1.05 1.03 1.03 1.03 1.00 0.98 0.99 0.99 1.00 1.01 1.02 1.00 1.01 1.00 1.01 1.04 1.06 1.08 1.12 1.11 1.10 1.14 1.20 1.29 1.34 1.36 1.36 1.39 1.39 1.39 1.40
0.63 0.71 0.79 0.89 0.94 0.98 1.03 1.08 1.09 1.06 0.99 0.94 0.94 0.98 0.99 0.96 0.99 0.99 0.99 0.98 0.96 0.94 0.90 0.90 0.90 0.87 0.84 0.83 0.82 0.84 0.93 0.89 0.84 0.87 0.95 1.10 1.18 1.21 1.22 1.28 1.34 1.38 1.42
0.60 0.61 0.67 0.74 0.79 0.84 0.96 1.05 1.03 0.95 0.87 0.83 0.86 0.91 0.91 0.89 0.91 0.93 0.93 0.95 0.96 0.93 0.91 0.89 0.83 0.80 0.78 0.77 0.76 0.79 0.79 0.71 0.68 0.71 0.73 0.84 1.00 1.09 1.15 1.21 1.26 1.36 1.39